| time (UTC) | temp F | wind direction | speed MPH | gust MPH | rain 1hr in | rain 24hr in | rain mn in | humidity % | barometer mb |
| 20260510231055 | 51 | 237 | 1.0 | 4.0 | 0.00 | 0.27 | 0.00 | 59 | 1019.9 |
| 20260510230510 | 51 | 264 | 1.0 | 7.0 | 0.00 | 0.27 | 0.00 | 56 | 1019.8 |
| 20260510230017 | 51 | 274 | 2.0 | 7.0 | 0.00 | 0.33 | 0.00 | 55 | 1019.7 |
| 20260510225522 | 51 | 253 | 3.0 | 8.0 | 0.00 | 0.33 | 0.00 | 54 | 1019.7 |
| 20260510225029 | 52 | 257 | 3.0 | 8.0 | 0.00 | 0.33 | 0.00 | 53 | 1019.6 |
| 20260510224535 | 52 | 279 | 4.0 | 8.0 | 0.00 | 0.33 | 0.00 | 52 | 1019.5 |
| 20260510224029 | 52 | 250 | 3.0 | 7.0 | 0.00 | 0.33 | 0.00 | 53 | 1019.5 |
| 20260510223535 | 52 | 263 | 3.0 | 8.0 | 0.00 | 0.33 | 0.00 | 51 | 1019.5 |
| 20260510223045 | 53 | 239 | 4.0 | 8.0 | 0.00 | 0.33 | 0.00 | 52 | 1019.4 |
| 20260510222549 | 53 | 227 | 4.0 | 8.0 | 0.00 | 0.33 | 0.00 | 52 | 1019.4 |
| 20260510222056 | 53 | 248 | 4.0 | 10.0 | 0.00 | 0.33 | 0.00 | 51 | 1019.4 |
| 20260510221600 | 53 | 252 | 4.0 | 10.0 | 0.00 | 0.33 | 0.00 | 50 | 1019.3 |
| 20260510221503 | 53 | 238 | 4.0 | 10.0 | 0.00 | 0.33 | 0.00 | 50 | 1019.3 |
| 20260510221003 | 53 | 233 | 4.0 | 8.0 | 0.00 | 0.33 | 0.00 | 51 | 1019.3 |
| 20260510220515 | 53 | 253 | 4.0 | 9.0 | 0.00 | 0.33 | 0.00 | 51 | 1019.2 |
| 20260510220023 | 53 | 249 | 3.0 | 9.0 | 0.00 | 0.33 | 0.00 | 50 | 1019.3 |
| 20260510215528 | 53 | 258 | 3.0 | 8.0 | 0.00 | 0.33 | 0.00 | 50 | 1019.3 |
| 20260510215031 | 53 | 254 | 4.0 | 10.0 | 0.00 | 0.33 | 0.00 | 47 | 1019.2 |
| 20260510214537 | 53 | 239 | 5.0 | 9.0 | 0.00 | 0.33 | 0.00 | 48 | 1019.3 |
| 20260510214045 | 53 | 254 | 2.0 | 10.0 | 0.00 | 0.33 | 0.00 | 47 | 1019.3 |
| 20260510213556 | 53 | 265 | 6.0 | 10.0 | 0.00 | 0.33 | 0.00 | 47 | 1019.2 |
| 20260510213008 | 53 | 232 | 5.0 | 11.0 | 0.00 | 0.33 | 0.00 | 48 | 1019.1 |
| 20260510212525 | 53 | 265 | 5.0 | 11.0 | 0.00 | 0.33 | 0.00 | 53 | 1019.2 |
| 20260510212032 | 53 | 257 | 6.0 | 11.0 | 0.00 | 0.33 | 0.00 | 53 | 1019.1 |
| 20260510211537 | 53 | 242 | 3.0 | 13.0 | 0.00 | 0.33 | 0.00 | 53 | 1019.1 |
| 20260510211008 | 52 | 242 | 7.0 | 13.0 | 0.00 | 0.33 | 0.00 | 53 | 1019.0 |
| 20260510210520 | 53 | 234 | 6.0 | 12.0 | 0.00 | 0.33 | 0.00 | 52 | 1019.0 |
| 20260510210113 | 53 | 254 | 4.0 | 15.0 | 0.00 | 0.33 | 0.00 | 56 | 1018.9 |
| 20260510205547 | 52 | 248 | 4.0 | 15.0 | 0.00 | 0.33 | 0.00 | 54 | 1018.9 |
| 20260510205051 | 52 | 237 | 5.0 | 11.0 | 0.00 | 0.33 | 0.00 | 54 | 1018.8 |
| 20260510204539 | 52 | 286 | 4.0 | 10.0 | 0.00 | 0.33 | 0.00 | 54 | 1018.8 |
| 20260510204035 | 53 | 291 | 4.0 | 10.0 | 0.00 | 0.33 | 0.00 | 58 | 1018.7 |
| 20260510203528 | 52 | 239 | 6.0 | 12.0 | 0.00 | 0.33 | 0.00 | 57 | 1018.6 |
| 20260510203036 | 52 | 263 | 5.0 | 12.0 | 0.00 | 0.33 | 0.00 | 55 | 1018.6 |
| 20260510202537 | 52 | 238 | 7.0 | 12.0 | 0.00 | 0.33 | 0.00 | 59 | 1018.6 |
| 20260510202043 | 52 | 255 | 7.0 | 12.0 | 0.00 | 0.33 | 0.00 | 61 | 1018.6 |
| 20260510201556 | 52 | 246 | 7.0 | 12.0 | 0.00 | 0.33 | 0.00 | 58 | 1018.7 |
| 20260510201102 | 52 | 256 | 5.0 | 11.0 | 0.00 | 0.33 | 0.00 | 61 | 1018.6 |
| 20260510200545 | 53 | 237 | 5.0 | 11.0 | 0.00 | 0.33 | 0.00 | 59 | 1018.5 |
| 20260510200042 | 53 | 252 | 4.0 | 12.0 | 0.00 | 0.33 | 0.00 | 61 | 1018.5 |
| 20260510195547 | 52 | 231 | 3.0 | 12.0 | 0.00 | 0.33 | 0.00 | 62 | 1018.5 |
| 20260510195033 | 52 | 246 | 6.0 | 12.0 | 0.00 | 0.33 | 0.00 | 60 | 1018.5 |
| 20260510194523 | 52 | 279 | 6.0 | 12.0 | 0.00 | 0.33 | 0.00 | 59 | 1018.5 |
| 20260510194101 | 52 | 239 | 5.0 | 10.0 | 0.00 | 0.33 | 0.00 | 61 | 1018.5 |
| 20260510193505 | 52 | 275 | 5.0 | 11.0 | 0.00 | 0.33 | 0.00 | 62 | 1018.4 |
| 20260510193010 | 52 | 260 | 8.0 | 11.0 | 0.00 | 0.33 | 0.00 | 60 | 1018.5 |
| 20260510192527 | 53 | 229 | 5.0 | 11.0 | 0.00 | 0.33 | 0.00 | 64 | 1018.5 |
| 20260510192049 | 53 | 236 | 3.0 | 10.0 | 0.00 | 0.33 | 0.00 | 64 | 1018.5 |
| 20260510191559 | 53 | 268 | 5.0 | 9.0 | 0.00 | 0.33 | 0.00 | 60 | 1018.5 |
| 20260510191040 | 54 | 276 | 3.0 | 9.0 | 0.00 | 0.33 | 0.00 | 61 | 1018.3 |
| 20260510190552 | 54 | 269 | 3.0 | 8.0 | 0.00 | 0.33 | 0.00 | 64 | 1018.3 |
| 20260510190100 | 54 | 248 | 2.0 | 10.0 | 0.00 | 0.33 | 0.00 | 65 | 1018.2 |
| 20260510185545 | 53 | 226 | 2.0 | 10.0 | 0.00 | 0.33 | 0.00 | 64 | 1018.1 |
| 20260510185051 | 53 | 221 | 3.0 | 9.0 | 0.00 | 0.33 | 0.00 | 61 | 1018.1 |
| 20260510184558 | 53 | 229 | 3.0 | 9.0 | 0.00 | 0.33 | 0.00 | 60 | 1018.1 |
| 20260510184501 | 53 | 256 | 4.0 | 9.0 | 0.00 | 0.33 | 0.00 | 62 | 1018.1 |
| 20260510184053 | 53 | 284 | 3.0 | 7.0 | 0.00 | 0.33 | 0.00 | 60 | 1018.0 |
| 20260510183559 | 53 | 269 | 2.0 | 7.0 | 0.00 | 0.33 | 0.00 | 60 | 1018.2 |
| 20260510183502 | 53 | 249 | 3.0 | 7.0 | 0.00 | 0.33 | 0.00 | 58 | 1018.2 |
| 20260510183003 | 53 | 230 | 2.0 | 11.0 | 0.00 | 0.33 | 0.00 | 58 | 1018.2 |
| 20260510182517 | 53 | 239 | 5.0 | 11.0 | 0.00 | 0.33 | 0.00 | 58 | 1018.2 |
| 20260510182028 | 53 | 244 | 2.0 | 8.0 | 0.00 | 0.33 | 0.00 | 59 | 1018.1 |
| 20260510181539 | 53 | 236 | 3.0 | 8.0 | 0.00 | 0.33 | 0.00 | 58 | 1018.1 |
| 20260510181045 | 53 | 259 | 3.0 | 8.0 | 0.00 | 0.33 | 0.00 | 61 | 1018.0 |
| 20260510180553 | 53 | 309 | 2.0 | 8.0 | 0.00 | 0.33 | 0.00 | 59 | 1018.0 |
| 20260510180119 | 53 | 297 | 2.0 | 9.0 | 0.00 | 0.33 | 0.00 | 61 | 1017.8 |
| 20260510175512 | 53 | 251 | 4.0 | 9.0 | 0.00 | 0.33 | 0.00 | 58 | 1017.9 |
| 20260510175025 | 52 | 233 | 2.0 | 8.0 | 0.00 | 0.33 | 0.00 | 60 | 1017.8 |
| 20260510174503 | 52 | 271 | 1.0 | 6.0 | 0.00 | 0.33 | 0.00 | 60 | 1017.8 |
| 20260510174007 | 52 | 263 | 2.0 | 8.0 | 0.00 | 0.33 | 0.00 | 55 | 1017.8 |
| 20260510173552 | 52 | 303 | 3.0 | 9.0 | 0.00 | 0.33 | 0.00 | 57 | 1017.9 |
| 20260510173036 | 52 | 297 | 2.0 | 9.0 | 0.00 | 0.33 | 0.00 | 57 | 1017.9 |
| 20260510172546 | 52 | 250 | 1.0 | 7.0 | 0.00 | 0.33 | 0.00 | 56 | 1017.8 |
| 20260510172048 | 52 | 279 | 3.0 | 8.0 | 0.00 | 0.33 | 0.00 | 55 | 1017.8 |
| 20260510171603 | 52 | 311 | 3.0 | 8.0 | 0.00 | 0.33 | 0.00 | 54 | 1017.8 |
| 20260510171103 | 52 | 327 | 2.0 | 7.0 | 0.00 | 0.33 | 0.00 | 51 | 1017.7 |
| 20260510171000 | 52 | 327 | 2.0 | 7.0 | 0.00 | 0.33 | 0.00 | 52 | 1017.7 |
| 20260510170511 | 52 | 321 | 2.0 | 7.0 | 0.00 | 0.33 | 0.00 | 55 | 1017.6 |
| 20260510170021 | 52 | 278 | 2.0 | 7.0 | 0.00 | 0.33 | 0.00 | 53 | 1017.6 |
| 20260510165555 | 52 | 254 | 2.0 | 6.0 | 0.00 | 0.33 | 0.00 | 55 | 1017.5 |
| 20260510165002 | 51 | 340 | 2.0 | 4.0 | 0.00 | 0.33 | 0.00 | 54 | 1017.5 |
| 20260510164529 | 51 | 320 | 1.0 | 8.0 | 0.00 | 0.33 | 0.00 | 51 | 1017.4 |
| 20260510164026 | 51 | 298 | 3.0 | 8.0 | 0.00 | 0.33 | 0.00 | 57 | 1017.5 |
| 20260510163536 | 51 | 232 | 1.0 | 8.0 | 0.00 | 0.33 | 0.00 | 57 | 1017.4 |
| 20260510163046 | 50 | 249 | 3.0 | 8.0 | 0.00 | 0.33 | 0.00 | 56 | 1017.4 |
| 20260510162533 | 50 | 232 | 1.0 | 5.0 | 0.00 | 0.33 | 0.00 | 56 | 1017.4 |
| 20260510162023 | 49 | 247 | 2.0 | 9.0 | 0.00 | 0.33 | 0.00 | 57 | 1017.4 |
| 20260510161558 | 49 | 240 | 3.0 | 9.0 | 0.00 | 0.33 | 0.00 | 59 | 1017.3 |
| 20260510161002 | 49 | 236 | 2.0 | 10.0 | 0.00 | 0.33 | 0.00 | 58 | 1017.2 |
| 20260510160513 | 49 | 257 | 4.0 | 10.0 | 0.00 | 0.33 | 0.00 | 58 | 1017.2 |
| 20260510160002 | 49 | 304 | 2.0 | 6.0 | 0.00 | 0.33 | 0.00 | 58 | 1017.2 |
| 20260510155517 | 48 | 309 | 3.0 | 8.0 | 0.00 | 0.33 | 0.00 | 62 | 1017.3 |
| 20260510155024 | 48 | 249 | 2.0 | 8.0 | 0.00 | 0.33 | 0.00 | 60 | 1017.2 |
| 20260510154528 | 48 | 305 | 4.0 | 9.0 | 0.00 | 0.33 | 0.00 | 60 | 1017.2 |
| 20260510154040 | 49 | 242 | 3.0 | 9.0 | 0.00 | 0.33 | 0.00 | 58 | 1017.3 |
| 20260510153548 | 49 | 283 | 2.0 | 5.0 | 0.00 | 0.33 | 0.00 | 62 | 1017.2 |
| 20260510153056 | 48 | 336 | 2.0 | 4.0 | 0.00 | 0.33 | 0.00 | 61 | 1017.2 |
| 20260510152556 | 48 | 334 | 1.0 | 8.0 | 0.00 | 0.33 | 0.00 | 62 | 1017.2 |
| 20260510152103 | 48 | 277 | 2.0 | 10.0 | 0.00 | 0.33 | 0.00 | 60 | 1017.2 |
| 20260510151508 | 48 | 284 | 4.0 | 10.0 | 0.00 | 0.33 | 0.00 | 59 | 1017.1 |
| 20260510151020 | 48 | 263 | 2.0 | 6.0 | 0.00 | 0.33 | 0.00 | 60 | 1017.0 |
| 20260510150530 | 48 | 264 | 2.0 | 5.0 | 0.00 | 0.33 | 0.00 | 60 | 1016.9 |
| 20260510150050 | 48 | 268 | 2.0 | 6.0 | 0.00 | 0.33 | 0.00 | 61 | 1016.9 |
| 20260510145534 | 47 | 327 | 1.0 | 6.0 | 0.00 | 0.33 | 0.00 | 60 | 1016.9 |
| 20260510145042 | 48 | 331 | 2.0 | 8.0 | 0.00 | 0.33 | 0.00 | 59 | 1016.9 |
| 20260510144548 | 48 | 248 | 3.0 | 5.0 | 0.00 | 0.33 | 0.00 | 59 | 1016.8 |
| 20260510144038 | 48 | 327 | 2.0 | 5.0 | 0.00 | 0.33 | 0.00 | 61 | 1016.7 |
| 20260510143522 | 48 | 325 | 1.0 | 5.0 | 0.00 | 0.33 | 0.00 | 62 | 1016.6 |
| 20260510143100 | 48 | 232 | 2.0 | 7.0 | 0.00 | 0.33 | 0.00 | 61 | 1016.5 |
| 20260510142510 | 48 | 273 | 2.0 | 6.0 | 0.00 | 0.33 | 0.00 | 60 | 1016.6 |
| 20260510142022 | 48 | 344 | 2.0 | 5.0 | 0.00 | 0.33 | 0.00 | 58 | 1016.6 |
| 20260510141536 | 48 | 260 | 0.0 | 5.0 | 0.00 | 0.33 | 0.00 | 62 | 1016.5 |
| 20260510141042 | 48 | 246 | 2.0 | 5.0 | 0.00 | 0.33 | 0.00 | 59 | 1016.3 |
| 20260510140554 | 48 | 320 | 2.0 | 5.0 | 0.00 | 0.33 | 0.00 | 60 | 1016.3 |
| 20260510140051 | 48 | 229 | 2.0 | 5.0 | 0.00 | 0.33 | 0.00 | 59 | 1016.2 |
| 20260510135557 | 48 | 351 | 2.0 | 7.0 | 0.00 | 0.33 | 0.00 | 59 | 1016.1 |
| 20260510135002 | 48 | 288 | 2.0 | 7.0 | 0.00 | 0.33 | 0.00 | 60 | 1016.1 |
| 20260510134510 | 48 | 317 | 1.0 | 5.0 | 0.00 | 0.33 | 0.00 | 62 | 1016.0 |
| 20260510134046 | 47 | 292 | 3.0 | 5.0 | 0.00 | 0.33 | 0.00 | 64 | 1016.0 |
| 20260510133555 | 47 | 336 | 1.0 | 4.0 | 0.00 | 0.33 | 0.00 | 64 | 1016.0 |
| 20260510133038 | 47 | 313 | 1.0 | 6.0 | 0.00 | 0.33 | 0.00 | 60 | 1015.8 |
| 20260510132544 | 47 | 275 | 1.0 | 6.0 | 0.00 | 0.33 | 0.00 | 64 | 1015.7 |
| 20260510132010 | 47 | 326 | 1.0 | 5.0 | 0.00 | 0.33 | 0.00 | 64 | 1015.8 |
| 20260510131504 | 47 | 303 | 2.0 | 5.0 | 0.00 | 0.33 | 0.00 | 64 | 1015.8 |
| 20260510131050 | 47 | 331 | 2.0 | 5.0 | 0.00 | 0.33 | 0.00 | 67 | 1015.7 |
| 20260510130537 | 47 | 233 | 2.0 | 6.0 | 0.00 | 0.33 | 0.00 | 67 | 1015.6 |
| 20260510130042 | 46 | 323 | 2.0 | 6.0 | 0.00 | 0.33 | 0.00 | 68 | 1015.5 |
| 20260510125517 | 46 | 326 | 2.0 | 6.0 | 0.00 | 0.33 | 0.00 | 69 | 1015.4 |
| 20260510125034 | 46 | 328 | 1.0 | 6.0 | 0.00 | 0.33 | 0.00 | 70 | 1015.4 |
| 20260510124559 | 46 | 333 | 0.0 | 6.0 | 0.00 | 0.33 | 0.00 | 70 | 1015.2 |
| 20260510124053 | 46 | 329 | 2.0 | 5.0 | 0.00 | 0.33 | 0.00 | 69 | 1015.1 |
| 20260510123556 | 46 | 321 | 2.0 | 5.0 | 0.00 | 0.33 | 0.00 | 70 | 1015.0 |
| 20260510123003 | 46 | 328 | 2.0 | 5.0 | 0.00 | 0.33 | 0.00 | 68 | 1014.9 |
| 20260510122517 | 46 | 331 | 2.0 | 5.0 | 0.00 | 0.33 | 0.00 | 69 | 1014.9 |
| 20260510122019 | 45 | 329 | 0.0 | 3.0 | 0.00 | 0.33 | 0.00 | 69 | 1014.8 |
| 20260510121526 | 45 | 329 | 1.0 | 8.0 | 0.00 | 0.33 | 0.00 | 68 | 1014.7 |
| 20260510121104 | 45 | 329 | 1.0 | 8.0 | 0.00 | 0.33 | 0.00 | 68 | 1014.5 |
| 20260510120554 | 45 | 335 | 4.0 | 8.0 | 0.00 | 0.33 | 0.00 | 67 | 1014.4 |
| 20260510120056 | 44 | 327 | 1.0 | 4.0 | 0.00 | 0.33 | 0.00 | 71 | 1014.3 |
| 20260510115544 | 44 | 355 | 0.0 | 2.0 | 0.00 | 0.33 | 0.00 | 74 | 1014.3 |
| 20260510115054 | 43 | 360 | 0.0 | 0.0 | 0.00 | 0.33 | 0.00 | 77 | 1014.2 |
| 20260510114606 | 43 | 360 | 0.0 | 0.0 | 0.00 | 0.33 | 0.00 | 78 | 1014.1 |
| 20260510114502 | 43 | 360 | 0.0 | 0.0 | 0.00 | 0.33 | 0.00 | 79 | 1014.2 |
| 20260510114102 | 43 | 360 | 0.0 | 0.0 | 0.00 | 0.33 | 0.00 | 79 | 1014.1 |
| 20260510113552 | 43 | 360 | 0.0 | 0.0 | 0.00 | 0.33 | 0.00 | 82 | 1014.0 |
| 20260510113107 | 43 | 360 | 0.0 | 2.0 | 0.00 | 0.33 | 0.00 | 84 | 1013.9 |
| 20260510112516 | 43 | 360 | 0.0 | 2.0 | 0.00 | 0.33 | 0.00 | 87 | 1013.9 |
| 20260510112054 | 43 | 360 | 0.0 | 2.0 | 0.00 | 0.33 | 0.00 | 88 | 1013.9 |
| 20260510111630 | 42 | 360 | 0.0 | 0.0 | 0.00 | 0.33 | 0.00 | 89 | 1013.8 |
| 20260510111502 | 42 | 360 | 0.0 | 0.0 | 0.00 | 0.33 | 0.00 | 89 | 1013.7 |
| 20260510111004 | 42 | 360 | 0.0 | 0.0 | 0.00 | 0.33 | 0.00 | 90 | 1013.7 |
| 20260510110516 | 42 | 360 | 0.0 | 4.0 | 0.00 | 0.33 | 0.00 | 91 | 1013.6 |
| 20260510110010 | 42 | 360 | 0.0 | 4.0 | 0.00 | 0.33 | 0.00 | 90 | 1013.5 |
| 20260510105521 | 42 | 28 | 0.0 | 2.0 | 0.00 | 0.33 | 0.00 | 91 | 1013.4 |
| 20260510105012 | 42 | 61 | 0.0 | 0.0 | 0.00 | 0.33 | 0.00 | 91 | 1013.3 |
| 20260510104524 | 42 | 61 | 0.0 | 0.0 | 0.00 | 0.33 | 0.00 | 91 | 1013.2 |
| 20260510104026 | 42 | 61 | 0.0 | 1.0 | 0.00 | 0.33 | 0.00 | 91 | 1012.9 |
| 20260510103534 | 42 | 61 | 0.0 | 1.0 | 0.00 | 0.33 | 0.00 | 90 | 1012.9 |
| 20260510103024 | 42 | 61 | 0.0 | 0.0 | 0.00 | 0.33 | 0.00 | 90 | 1012.7 |
| 20260510102526 | 42 | 61 | 0.0 | 0.0 | 0.00 | 0.33 | 0.00 | 90 | 1012.5 |
| 20260510102029 | 42 | 61 | 0.0 | 0.0 | 0.00 | 0.33 | 0.00 | 90 | 1012.4 |
| 20260510101531 | 42 | 61 | 0.0 | 0.0 | 0.00 | 0.33 | 0.00 | 90 | 1012.3 |
| 20260510101024 | 43 | 61 | 0.0 | 0.0 | 0.00 | 0.33 | 0.00 | 90 | 1012.2 |
| 20260510100514 | 43 | 61 | 0.0 | 0.0 | 0.00 | 0.33 | 0.00 | 90 | 1012.0 |
| 20260510100058 | 43 | 61 | 0.0 | 0.0 | 0.00 | 0.33 | 0.00 | 90 | 1012.0 |
| 20260510095600 | 43 | 61 | 0.0 | 0.0 | 0.00 | 0.33 | 0.00 | 90 | 1011.9 |
| 20260510095502 | 43 | 61 | 0.0 | 0.0 | 0.00 | 0.33 | 0.00 | 90 | 1011.9 |
| 20260510095100 | 43 | 61 | 0.0 | 0.0 | 0.00 | 0.33 | 0.00 | 90 | 1011.8 |
| 20260510094509 | 44 | 61 | 0.0 | 0.0 | 0.00 | 0.33 | 0.00 | 90 | 1011.8 |
| 20260510094011 | 44 | 61 | 0.0 | 0.0 | 0.00 | 0.33 | 0.00 | 90 | 1011.5 |
| 20260510093527 | 44 | 61 | 0.0 | 2.0 | 0.00 | 0.33 | 0.00 | 90 | 1011.5 |
| 20260510093005 | 44 | 61 | 0.0 | 2.0 | 0.00 | 0.33 | 0.00 | 91 | 1011.4 |
| 20260510092552 | 44 | 61 | 0.0 | 1.0 | 0.00 | 0.33 | 0.00 | 91 | 1011.5 |
| 20260510092048 | 44 | 63 | 0.0 | 0.0 | 0.00 | 0.33 | 0.00 | 91 | 1011.4 |
| 20260510091555 | 44 | 63 | 0.0 | 0.0 | 0.00 | 0.33 | 0.00 | 91 | 1011.3 |
| 20260510091051 | 44 | 63 | 0.0 | 1.0 | 0.00 | 0.33 | 0.00 | 91 | 1011.3 |
| 20260510090603 | 44 | 63 | 0.0 | 3.0 | 0.00 | 0.33 | 0.00 | 91 | 1011.1 |
| 20260510090002 | 45 | 63 | 1.0 | 3.0 | 0.00 | 0.33 | 0.00 | 90 | 1010.6 |
| 20260510085506 | 45 | 62 | 0.0 | 3.0 | 0.00 | 0.33 | 0.00 | 90 | 1010.9 |
| 20260510085019 | 45 | 62 | 0.0 | 0.0 | 0.00 | 0.33 | 0.00 | 90 | 1011.0 |
| 20260510084527 | 45 | 62 | 0.0 | 0.0 | 0.00 | 0.33 | 0.00 | 90 | 1010.8 |
| 20260510084103 | 46 | 62 | 0.0 | 0.0 | 0.00 | 0.33 | 0.00 | 90 | 1010.6 |
| 20260510083547 | 46 | 62 | 0.0 | 0.0 | 0.00 | 0.33 | 0.00 | 90 | 1010.4 |
| 20260510083040 | 46 | 62 | 0.0 | 1.0 | 0.00 | 0.33 | 0.00 | 89 | 1010.2 |
| 20260510082547 | 46 | 62 | 0.0 | 3.0 | 0.00 | 0.33 | 0.00 | 89 | 1010.0 |
| 20260510082039 | 47 | 62 | 1.0 | 3.0 | 0.00 | 0.33 | 0.00 | 89 | 1010.0 |
| 20260510081536 | 47 | 62 | 0.0 | 0.0 | 0.00 | 0.33 | 0.00 | 89 | 1010.3 |
| 20260510081031 | 47 | 62 | 0.0 | 0.0 | 0.00 | 0.33 | 0.00 | 89 | 1010.4 |
| 20260510080538 | 48 | 62 | 0.0 | 0.0 | 0.00 | 0.33 | 0.00 | 89 | 1010.1 |
| 20260510080036 | 48 | 62 | 0.0 | 0.0 | 0.00 | 0.33 | 0.00 | 88 | 1009.9 |
| 20260510075519 | 48 | 62 | 0.0 | 0.0 | 0.00 | 0.33 | 0.00 | 88 | 1009.9 |
| 20260510075012 | 48 | 62 | 0.0 | 0.0 | 0.00 | 0.33 | 0.00 | 88 | 1009.9 |
| 20260510074558 | 48 | 62 | 0.0 | 0.0 | 0.00 | 0.33 | 0.00 | 88 | 1009.8 |
| 20260510074001 | 48 | 62 | 0.0 | 0.0 | 0.00 | 0.33 | 0.00 | 88 | 1009.8 |
| 20260510073522 | 48 | 62 | 0.0 | 0.0 | 0.00 | 0.33 | 0.00 | 88 | 1009.9 |
| 20260510073035 | 48 | 62 | 0.0 | 0.0 | 0.00 | 0.33 | 0.00 | 88 | 1009.9 |
| 20260510072527 | 49 | 62 | 0.0 | 1.0 | 0.00 | 0.33 | 0.00 | 88 | 1009.9 |
| 20260510072031 | 49 | 62 | 0.0 | 1.0 | 0.00 | 0.33 | 0.00 | 87 | 1009.7 |
| 20260510071538 | 49 | 62 | 0.0 | 1.0 | 0.00 | 0.33 | 0.00 | 88 | 1009.5 |
| 20260510071037 | 49 | 62 | 0.0 | 1.0 | 0.00 | 0.33 | 0.00 | 88 | 1009.4 |
| 20260510070547 | 49 | 62 | 0.0 | 3.0 | 0.00 | 0.33 | 0.00 | 88 | 1009.4 |
| 20260510070052 | 49 | 62 | 0.0 | 3.0 | 0.00 | 0.33 | 0.00 | 88 | 1009.3 |
| 20260510065555 | 50 | 332 | 0.0 | 4.0 | 0.00 | 0.33 | 0.00 | 88 | 1009.4 |
| 20260510065101 | 50 | 333 | 1.0 | 4.0 | 0.00 | 0.33 | 0.00 | 89 | 1009.2 |
| 20260510064536 | 50 | 317 | 0.0 | 3.0 | 0.00 | 0.33 | 0.00 | 89 | 1009.2 |
| 20260510064057 | 51 | 310 | 0.0 | 3.0 | 0.00 | 0.33 | 0.00 | 90 | 1009.3 |
| 20260510063504 | 51 | 217 | 0.0 | 2.0 | 0.00 | 0.33 | 0.00 | 90 | 1009.1 |
| 20260510063004 | 51 | 216 | 0.0 | 2.0 | 0.00 | 0.33 | 0.00 | 90 | 1009.2 |
| 20260510062510 | 51 | 216 | 0.0 | 2.0 | 0.00 | 0.33 | 0.00 | 90 | 1009.1 |
| 20260510062023 | 51 | 216 | 0.0 | 2.0 | 0.00 | 0.33 | 0.00 | 90 | 1009.0 |
| 20260510061541 | 51 | 216 | 0.0 | 2.0 | 0.00 | 0.33 | 0.00 | 90 | 1009.0 |
| 20260510061044 | 52 | 216 | 0.0 | 2.0 | 0.00 | 0.33 | 0.00 | 90 | 1008.7 |
| 20260510060550 | 52 | 216 | 0.0 | 2.0 | 0.00 | 0.33 | 0.00 | 89 | 1008.6 |
| 20260510060059 | 52 | 216 | 0.0 | 2.0 | 0.00 | 0.33 | 0.00 | 89 | 1008.4 |
| 20260510055511 | 52 | 216 | 0.0 | 2.0 | 0.00 | 0.33 | 0.00 | 89 | 1008.4 |
| 20260510055025 | 52 | 216 | 0.0 | 3.0 | 0.00 | 0.33 | 0.00 | 89 | 1008.5 |
| 20260510054531 | 52 | 216 | 1.0 | 4.0 | 0.00 | 0.33 | 0.00 | 88 | 1008.5 |
| 20260510054036 | 52 | 216 | 1.0 | 5.0 | 0.00 | 0.33 | 0.00 | 88 | 1008.5 |
| 20260510053541 | 52 | 228 | 2.0 | 11.0 | 0.00 | 0.33 | 0.00 | 87 | 1008.6 |
| 20260510053049 | 53 | 243 | 4.0 | 11.0 | 0.00 | 0.33 | 0.00 | 86 | 1008.6 |
| 20260510052558 | 54 | 235 | 3.0 | 8.0 | 0.00 | 0.33 | 0.00 | 84 | 1008.6 |
| 20260510052040 | 55 | 219 | 4.0 | 10.0 | 0.00 | 0.33 | 0.00 | 82 | 1008.5 |
| 20260510051547 | 56 | 309 | 2.0 | 10.0 | 0.00 | 0.33 | 0.00 | 83 | 1008.3 |
| 20260510051058 | 56 | 278 | 2.0 | 10.0 | 0.00 | 0.33 | 0.00 | 83 | 1008.2 |
| 20260510050539 | 55 | 265 | 5.0 | 10.0 | 0.00 | 0.33 | 0.00 | 83 | 1008.1 |
| 20260510050034 | 55 | 244 | 3.0 | 7.0 | 0.00 | 0.33 | 0.00 | 84 | 1008.0 |
| 20260510045537 | 55 | 252 | 2.0 | 5.0 | 0.00 | 0.33 | 0.00 | 84 | 1007.7 |
| 20260510045025 | 55 | 206 | 1.0 | 4.0 | 0.00 | 0.33 | 0.00 | 84 | 1007.3 |
| 20260510044533 | 55 | 219 | 1.0 | 6.0 | 0.00 | 0.33 | 0.00 | 84 | 1007.1 |
| 20260510044027 | 55 | 150 | 2.0 | 6.0 | 0.00 | 0.33 | 0.00 | 84 | 1006.8 |
| 20260510043513 | 55 | 196 | 1.0 | 6.0 | 0.00 | 0.33 | 0.00 | 83 | 1006.5 |
| 20260510043023 | 55 | 201 | 1.0 | 6.0 | 0.00 | 0.33 | 0.00 | 83 | 1006.6 |
| 20260510042532 | 55 | 175 | 2.0 | 5.0 | 0.00 | 0.33 | 0.00 | 83 | 1006.6 |
| 20260510042044 | 55 | 171 | 3.0 | 5.0 | 0.00 | 0.33 | 0.00 | 83 | 1006.6 |
| 20260510041604 | 55 | 219 | 0.0 | 11.0 | 0.00 | 0.33 | 0.00 | 83 | 1006.6 |
| 20260510041055 | 55 | 196 | 3.0 | 11.0 | 0.00 | 0.33 | 0.00 | 83 | 1006.7 |
| 20260510040503 | 55 | 183 | 2.0 | 10.0 | 0.00 | 0.33 | 0.00 | 83 | 1006.6 |
| 20260510040010 | 55 | 157 | 4.0 | 10.0 | 0.00 | 0.33 | 0.33 | 83 | 1006.4 |
| 20260510035510 | 55 | 177 | 2.0 | 7.0 | 0.00 | 0.33 | 0.33 | 83 | 1006.2 |
| 20260510035055 | 55 | 173 | 2.0 | 10.0 | 0.00 | 0.33 | 0.33 | 83 | 1006.1 |
| 20260510034509 | 55 | 198 | 4.0 | 12.0 | 0.00 | 0.33 | 0.33 | 83 | 1006.2 |
| 20260510034023 | 55 | 174 | 4.0 | 12.0 | 0.00 | 0.33 | 0.33 | 83 | 1006.3 |
| 20260510033527 | 55 | 163 | 3.0 | 12.0 | 0.00 | 0.33 | 0.33 | 83 | 1006.3 |
| 20260510033033 | 55 | 140 | 3.0 | 11.0 | 0.00 | 0.33 | 0.33 | 83 | 1006.1 |
| 20260510032539 | 55 | 136 | 4.0 | 10.0 | 0.00 | 0.33 | 0.33 | 83 | 1006.1 |
| 20260510032048 | 55 | 186 | 3.0 | 9.0 | 0.00 | 0.33 | 0.33 | 83 | 1006.2 |
| 20260510031539 | 56 | 128 | 4.0 | 11.0 | 0.00 | 0.33 | 0.33 | 82 | 1006.2 |
| 20260510031041 | 56 | 182 | 5.0 | 11.0 | 0.00 | 0.33 | 0.33 | 82 | 1006.1 |
| 20260510030547 | 56 | 163 | 3.0 | 9.0 | 0.00 | 0.33 | 0.33 | 82 | 1006.1 |
| 20260510030029 | 55 | 190 | 4.0 | 9.0 | 0.00 | 0.33 | 0.33 | 83 | 1006.2 |
| 20260510025536 | 55 | 169 | 4.0 | 11.0 | 0.00 | 0.33 | 0.33 | 83 | 1006.3 |
| 20260510025028 | 55 | 178 | 3.0 | 11.0 | 0.00 | 0.33 | 0.33 | 83 | 1006.2 |
| 20260510024541 | 55 | 149 | 4.0 | 11.0 | 0.00 | 0.33 | 0.33 | 83 | 1006.2 |
| 20260510024045 | 55 | 157 | 4.0 | 12.0 | 0.00 | 0.33 | 0.33 | 83 | 1006.3 |
| 20260510023548 | 55 | 197 | 6.0 | 11.0 | 0.00 | 0.33 | 0.33 | 83 | 1006.2 |
| 20260510023056 | 55 | 182 | 4.0 | 11.0 | 0.00 | 0.33 | 0.33 | 83 | 1006.3 |
| 20260510022504 | 55 | 232 | 5.0 | 12.0 | 0.00 | 0.33 | 0.33 | 82 | 1006.2 |
| 20260510022001 | 55 | 190 | 5.0 | 12.0 | 0.00 | 0.33 | 0.33 | 82 | 1006.2 |
| 20260510021553 | 55 | 180 | 4.0 | 10.0 | 0.00 | 0.33 | 0.33 | 82 | 1006.1 |
| 20260510021006 | 55 | 223 | 4.0 | 16.0 | 0.00 | 0.33 | 0.33 | 82 | 1006.0 |
| 20260510020515 | 55 | 168 | 5.0 | 12.0 | 0.00 | 0.33 | 0.33 | 83 | 1006.0 |
| 20260510020023 | 55 | 186 | 4.0 | 11.0 | 0.00 | 0.33 | 0.33 | 83 | 1005.9 |
| 20260510015532 | 55 | 182 | 6.0 | 11.0 | 0.00 | 0.33 | 0.33 | 83 | 1005.9 |
| 20260510015040 | 55 | 154 | 4.0 | 11.0 | 0.00 | 0.33 | 0.33 | 83 | 1005.9 |
| 20260510014533 | 55 | 194 | 3.0 | 14.0 | 0.00 | 0.33 | 0.33 | 84 | 1005.8 |
| 20260510014016 | 55 | 149 | 4.0 | 14.0 | 0.00 | 0.33 | 0.33 | 84 | 1005.7 |
| 20260510013505 | 55 | 194 | 4.0 | 11.0 | 0.00 | 0.33 | 0.33 | 84 | 1005.7 |
| 20260510013022 | 54 | 183 | 5.0 | 12.0 | 0.00 | 0.33 | 0.33 | 85 | 1005.6 |
| 20260510012527 | 54 | 198 | 4.0 | 11.0 | 0.00 | 0.33 | 0.33 | 85 | 1005.6 |
| 20260510012031 | 54 | 130 | 4.0 | 12.0 | 0.00 | 0.33 | 0.33 | 86 | 1005.4 |
| 20260510011536 | 54 | 185 | 5.0 | 16.0 | 0.00 | 0.33 | 0.33 | 86 | 1005.4 |
| 20260510011021 | 54 | 165 | 4.0 | 12.0 | 0.00 | 0.33 | 0.33 | 87 | 1005.5 |
| 20260510010505 | 54 | 219 | 6.0 | 12.0 | 0.01 | 0.33 | 0.33 | 87 | 1005.4 |
| 20260510010013 | 54 | 175 | 5.0 | 12.0 | 0.01 | 0.33 | 0.33 | 87 | 1005.4 |
| 20260510005513 | 54 | 191 | 4.0 | 19.0 | 0.02 | 0.33 | 0.33 | 88 | 1005.3 |
| 20260510005024 | 53 | 173 | 6.0 | 19.0 | 0.04 | 0.33 | 0.33 | 88 | 1005.4 |
| 20260510004532 | 53 | 173 | 6.0 | 14.0 | 0.06 | 0.33 | 0.33 | 89 | 1005.3 |
| 20260510004041 | 53 | 165 | 6.0 | 12.0 | 0.12 | 0.33 | 0.33 | 90 | 1005.2 |
| 20260510003556 | 53 | 196 | 3.0 | 13.0 | 0.15 | 0.33 | 0.33 | 90 | 1005.1 |
| 20260510003100 | 53 | 167 | 3.0 | 10.0 | 0.17 | 0.33 | 0.33 | 91 | 1004.9 |
| 20260510002505 | 53 | 250 | 4.0 | 15.0 | 0.19 | 0.33 | 0.33 | 91 | 1004.9 |
| 20260510002019 | 52 | 181 | 5.0 | 15.0 | 0.20 | 0.33 | 0.33 | 91 | 1005.0 |
| 20260510001523 | 52 | 167 | 2.0 | 12.0 | 0.22 | 0.33 | 0.33 | 91 | 1005.0 |
| 20260510001037 | 52 | 202 | 2.0 | 8.0 | 0.25 | 0.33 | 0.33 | 92 | 1005.1 |
| 20260510000540 | 52 | 136 | 3.0 | 16.0 | 0.26 | 0.33 | 0.33 | 92 | 1004.8 |
| 20260510000018 | 52 | 180 | 3.0 | 16.0 | 0.26 | 0.32 | 0.32 | 92 | 1004.9 |
| 20260509235509 | 52 | 175 | 5.0 | 11.0 | 0.26 | 0.31 | 0.31 | 92 | 1005.6 |
| 20260509235012 | 51 | 175 | 3.0 | 10.0 | 0.25 | 0.28 | 0.28 | 92 | 1006.3 |
| 20260509234536 | 51 | 186 | 3.0 | 6.0 | 0.24 | 0.26 | 0.26 | 92 | 1006.4 |
| 20260509234007 | 51 | 219 | 1.0 | 5.0 | 0.20 | 0.21 | 0.21 | 92 | 1006.5 |
| 20260509233518 | 51 | 223 | 2.0 | 7.0 | 0.18 | 0.18 | 0.18 | 91 | 1006.5 |
| 20260509233059 | 51 | 217 | 2.0 | 7.0 | 0.16 | 0.16 | 0.16 | 91 | 1006.5 |
| 20260509232545 | 51 | 205 | 2.0 | 9.0 | 0.14 | 0.14 | 0.14 | 91 | 1006.5 |
| 20260509232054 | 50 | 244 | 2.0 | 10.0 | 0.13 | 0.13 | 0.13 | 91 | 1006.4 |
| 20260509231611 | 50 | 277 | 5.0 | 15.0 | 0.11 | 0.11 | 0.12 | 90 | 1006.4 |